Погода в Силифке

Турция     36°22′31″N   33°56′14″E
темп.,
°C
ветер,
м/с
пор.,
м/с
влажн.,
%
обл.,
%
осадки,
мм/ч
давл.,
гПа
погр.,
м
8 августа, пн
пн800:00+23св33810 0.0 100489
03:00+22св34903 0.0 1005115
06:00+21св229213 0.0 100626
09:00+25юв227247 0.0 1006748
12:00+28ююв536066 0.0 10061062
15:00+29ю65490 0.0 1006927
18:00+27ю43400 0.0 1006706
21:00+22ююз11680 0.0 100738
9 августа, вт
вт900:00+22св22670 0.0 100737
03:00+21ссв227410 0.0 100728
06:00+20ссв11770 0.0 100711
09:00+24юв21662 0.0 1007662
12:00+28ююв435312 0.0 10061190
15:00+28ю65552 0.0 1006981
18:00+27ю44470 0.0 1006780
21:00+22ююз11820 0.0 100762
10 августа, ср
ср1000:00+22св22790 0.0 100660
03:00+21ссв33800 0.0 100661
06:00+21ссв22770 0.0 100521
09:00+25юв21621 0.0 1006697
12:00+29ююв535415 0.0 10061155
15:00+29ю75552 0.0 10051070
18:00+28ю43560 0.0 1005767
21:00+23юз11860 0.0 100657
11 августа, чт
чт1100:00+22св33820 0.0 100556
03:00+22св22891 0.0 100540
06:00+21св11931 0.0 100616
09:00+26ююв22659 0.0 1006809
12:00+29ююв436035 0.0 10061067
15:00+29ю545918 0.0 1005937
18:00+27ю32600 0.1 1006623
21:00+23юз11850 0.1 100677
12 августа, пт
пт1200:00+23св33860 0.0 100681
03:00+22св22891 0.0 100655
06:00+21св11880 0.0 100630
09:00+27ююв22611 0.0 1007768
12:00+29ююв535926 0.0 10061038
15:00+30ю64570 0.0 1006856
18:00+28ю33530 0.0 1005589
21:00+24зсз01700 0.0 100635